[[{"header":{"parameterUnit":"m.s-1","parameterCategory":1,"la1":30.2991,"la2":30.254,"lo1":-89.0895,"lo2":-89.0444,"dy":0.0017,"dx":0.0017,"nx":28,"ny":28,"refTime":"2025-11-20T09:00:00:Z","depth":0,"parameterNumber":2,"parameterNumberName":"U-component_of_WINDS"},"data":[0,0,0,0,0,0,0,0,0,0,0,0,0,0,0,0,0,0,0,0,0,0,0,0,0,0,0,0,0,0,0,0,0,0,0,0,0,0,0,0,0,0,0,0,0,0,0,0,0,0,0,0,0,0,0,0,0,0,-3.213,-3.213,0,-3.2163,-3.2163,-3.2164,-3.2136,-3.2134,-3.2133,-3.2132,-3.2166,-3.2168,-3.217,0,0,0,0,0,0,0,0,0,0,0,0,0,-3.2042,-3.2044,-3.213,-3.213,-3.213,-3.2163,-3.2163,-3.2164,-3.2136,-3.2134,-3.2133,-3.2132,-3.2165,-3.2168,-3.217,0,0,0,0,0,0,0,0,0,0,0,0,0,-3.2078,-3.2044,-3.2129,-3.212,-3.212,-3.2163,-3.2163,-3.2164,-3.2136,-3.2134,-3.2133,-3.2131,-3.2165,-3.2167,-3.217,-3.2224,0,0,-3.2179,-3.2181,0,0,0,0,0,0,0,0,-3.2076,-3.2081,-3.2121,-3.2121,-3.2121,-3.2143,-3.2145,-3.2184,-3.2137,-3.213,-3.2132,-3.213,-3.216,-3.2163,-3.2173,-3.2225,-3.2227,-3.218,-3.2182,-3.2183,-3.2184,0,0,0,0,0,0,0,-3.2074,-3.208,-3.2143,-3.2122,-3.2121,-3.2115,-3.2118,-3.2152,-3.2154,-3.213,-3.2128,-3.2133,-3.2159,-3.217,-3.2174,-3.2227,-3.218,-3.2182,-3.2184,-3.2185,-3.2325,-3.2327,0,0,0,0,0,0,-3.2072,-3.2078,-3.2142,-3.2144,-3.2094,-3.2118,-3.2121,-3.2138,-3.2154,-3.2155,-3.2134,-3.2131,-3.2166,-3.217,-3.2175,-3.2238,-3.2183,-3.2186,-3.2187,-3.2324,-3.2326,-3.2328,0,0,0,0,0,0,-3.207,-3.2078,-3.214,-3.211,-3.2118,-3.2121,-3.214,-3.2139,-3.215,-3.2157,-3.2157,-3.2145,-3.2165,-3.2171,-3.2212,-3.2239,-3.2187,-3.219,-3.2321,-3.2324,-3.2327,-3.2365,0,0,0,0,0,0,-3.2068,-3.2078,-3.2098,-3.2111,-3.2119,-3.2177,-3.2142,-3.2141,-3.2156,-3.2152,-3.2167,-3.2168,-3.2164,-3.2208,-3.2215,-3.2242,-3.2192,-3.2319,-3.2323,-3.2326,-3.2362,-3.2369,-3.2376,0,0,0,0,0,-3.2065,-3.2107,-3.2099,-3.2107,-3.2145,-3.2178,-3.2183,-3.2178,-3.2158,-3.2178,-3.2183,-3.2167,-3.2235,-3.2212,-3.222,-3.2248,-3.2317,-3.2322,-3.2326,-3.2358,-3.2368,-3.2375,0,0,0,0,0,0,-3.2096,-3.2109,-3.21,-3.2147,-3.2162,-3.2174,-3.2199,-3.2188,-3.2209,-3.2204,-3.2197,-3.2201,-3.2244,-3.2251,-3.2225,-3.2301,-3.2273,-3.2279,-3.2295,-3.2304,-3.2311,-3.2307,-3.2194,0,0,0,0,0,-3.2109,-3.2135,-3.2145,-3.2186,-3.2194,-3.2195,-3.221,-3.2205,-3.222,-3.2226,-3.2233,-3.2248,-3.2273,-3.2289,-3.2312,-3.2363,-3.2366,-3.2387,-3.2394,-3.2399,-3.2404,-3.2432,-3.2441,-3.2342,-3.2342,-3.2342,0,0,-3.2135,-3.2145,-3.2162,-3.2192,-3.2203,-3.2231,-3.2201,-3.2231,-3.2251,-3.223,-3.2269,-3.2276,-3.2292,-3.2338,-3.2359,-3.2345,-3.2433,-3.2405,-3.241,-3.2411,-3.2437,-3.2446,-3.2455,-3.2345,-3.2345,-3.2344,0,0,-3.2196,-3.2207,-3.2242,-3.2254,-3.2271,-3.2272,-3.228,-3.2294,-3.2297,-3.2337,-3.2322,-3.2346,-3.2389,-3.2401,-3.2413,-3.248,-3.2467,-3.2488,-3.2524,-3.2551,-3.2558,-3.2565,-3.2588,-3.2597,-3.2493,-3.2493,-3.2494,0,-3.2226,-3.2266,-3.2261,-3.2293,-3.2307,-3.229,-3.2326,-3.2337,-3.2361,-3.2371,-3.2355,-3.2409,-3.2419,-3.2468,-3.2484,-3.2495,-3.2504,-3.2485,-3.2558,-3.2565,-3.2571,-3.2593,-3.2602,-3.2496,-3.2496,-3.2495,-3.2495,0,-3.2302,-3.2331,-3.2357,-3.2381,-3.2398,-3.2431,-3.2431,-3.245,-3.2444,-3.2446,-3.2487,-3.2499,-3.2524,-3.2536,-3.253,-3.2584,-3.2575,-3.2559,-3.253,-3.2583,-3.2603,-3.2612,-3.2499,-3.2498,-3.2498,-3.2497,0,0,-3.2382,-3.2403,-3.2413,-3.2423,-3.2442,-3.2464,-3.2497,-3.2522,-3.2537,-3.2555,-3.2582,-3.2619,-3.2605,-3.2618,-3.2614,-3.2638,-3.269,-3.2619,-3.2619,-3.2631,-3.275,-3.276,-3.277,-3.2682,-3.2684,-3.2685,-3.2748,0,-3.2443,-3.25,-3.2497,-3.255,-3.2577,-3.2562,-3.2591,-3.2605,-3.2609,-3.2632,-3.2637,-3.2663,-3.2642,-3.2651,-3.2674,-3.2679,-3.2713,-3.2674,-3.2707,-3.2708,-3.2701,-3.2781,-3.2792,-3.2851,-3.2756,-3.2757,-3.2758,0,-3.2521,-3.2541,-3.2597,-3.2612,-3.2623,-3.2649,-3.2672,-3.2694,-3.271,-3.2712,-3.2728,-3.272,-3.2754,-3.2726,-3.2772,-3.2745,-3.2759,-3.2764,-3.2766,-3.2767,-3.2735,-3.2783,-3.2869,-3.2878,-3.2771,-3.277,-3.2769,0,-3.2572,-3.2614,-3.2653,-3.2662,-3.2681,-3.2699,-3.2708,-3.2723,-3.2738,-3.2758,-3.2768,-3.2792,-3.2805,-3.2824,-3.2823,-3.2803,-3.287,-3.2842,-3.2872,-3.2872,-3.2885,-3.2883,-3.2973,-3.2896,-3.2896,-3.2896,-3.2896,0,-3.2639,-3.2674,-3.2676,-3.27,-3.2738,-3.2735,-3.2774,-3.278,-3.2794,-3.2819,-3.2808,-3.2832,-3.283,-3.2854,-3.2854,-3.2892,-3.2899,-3.29,-3.2899,-3.29,-3.29,-3.2907,-3.2903,-3.2898,-3.2898,-3.2897,-3.2897,0,-3.2702,-3.2705,-3.2746,-3.2761,-3.2765,-3.2793,-3.2805,-3.2828,-3.2832,-3.2864,-3.2871,-3.2877,-3.2905,-3.2906,-3.2939,-3.2939,-3.2984,-3.298,-3.2979,-3.2977,-3.3006,-3.3003,-3.3102,-3.3115,-3.3031,-3.3032,-3.3033,0,-3.2744,-3.2771,-3.2788,-3.2804,-3.2814,-3.284,-3.2855,-3.2854,-3.2871,-3.2892,-3.2912,-3.2939,-3.2961,-3.3006,-3.3013,-3.3038,-3.3033,-3.3066,-3.3037,-3.3037,-3.3032,-3.303,-3.3032,-3.3071,-3.3072,-3.3073,-3.3074,0,-3.2818,-3.2818,-3.2841,-3.2865,-3.2884,-3.2903,-3.292,-3.2934,-3.2935,-3.2955,-3.2983,-3.3,-3.3033,-3.306,-3.3084,-3.3093,-3.3084,-3.3083,-3.3091,-3.3091,-3.3089,-3.309,-3.2993,-3.3081,-3.308,-3.3079,-3.3079,-3.3079,-3.2871,-3.2894,-3.291,-3.2936,-3.2949,-3.2966,-3.2987,-3.2994,-3.3018,-3.3045,-3.3043,-3.3074,-3.3091,-3.3123,-3.3134,-3.3159,-3.3147,-3.3159,-3.3162,-3.3164,-3.3167,-3.3087,-3.3163,-3.3163,-3.3163,-3.3163,-3.3163,0,-3.2943,-3.2953,-3.2977,-3.3002,-3.3023,-3.3013,-3.3032,-3.305,-3.3077,-3.3094,-3.3115,-3.3148,-3.3175,-3.3184,-3.321,-3.3228,-3.3224,-3.3235,-3.3232,-3.3234,-3.3176,-3.3166,-3.3237,-3.3237,-3.3237,-3.3237,-3.3237,-3.3237,-3.2983,-3.3021,-3.3023,-3.3068,-3.3077,-3.3108,-3.3119,-3.3135,-3.3148,-3.3185,-3.3207,-3.3213,-3.3227,-3.3254,-3.3278,-3.328,-3.3289,-3.3301,-3.3302,-3.3246,-3.3239,-3.3231,-3.3222,-3.3304,-3.3304,-3.3358,-3.3359,-3.3359]},{"header":{"parameterUnit":"m.s-1","parameterCategory":1,"la1":30.2991,"la2":30.254,"lo1":-89.0895,"lo2":-89.0444,"dy":0.0017,"dx":0.0017,"nx":28,"ny":28,"refTime":"2025-11-20T09:00:00:Z","depth":0,"parameterNumber":3,"parameterNumberName":"V-component_of_WINDS"},"data":[0,0,0,0,0,0,0,0,0,0,0,0,0,0,0,0,0,0,0,0,0,0,0,0,0,0,0,0,0,0,0,0,0,0,0,0,0,0,0,0,0,0,0,0,0,0,0,0,0,0,0,0,0,0,0,0,0,0,3.5097,3.5098,0,3.5148,3.5149,3.515,3.5142,3.5141,3.5141,3.514,3.519,3.5192,3.5194,0,0,0,0,0,0,0,0,0,0,0,0,0,3.4994,3.4996,3.5097,3.5098,3.5099,3.5148,3.5149,3.515,3.5142,3.5141,3.514,3.5139,3.5189,3.5192,3.5195,0,0,0,0,0,0,0,0,0,0,0,0,0,3.5042,3.4997,3.5097,3.5101,3.5102,3.5148,3.5149,3.515,3.5143,3.5141,3.514,3.5139,3.5189,3.5192,3.5195,3.524,0,0,3.5205,3.5206,0,0,0,0,0,0,0,0,3.5039,3.5045,3.51,3.5101,3.5102,3.5138,3.5131,3.518,3.5143,3.5127,3.514,3.5138,3.5174,3.5178,3.519,3.5242,3.5244,3.5205,3.5207,3.5208,3.5209,0,0,0,0,0,0,0,3.5036,3.5043,3.5117,3.5101,3.5102,3.5101,3.5106,3.514,3.5157,3.5128,3.5128,3.5134,3.5174,3.5187,3.5191,3.5245,3.5205,3.5208,3.521,3.5211,3.5341,3.5342,0,0,0,0,0,0,3.5031,3.504,3.5116,3.5119,3.5067,3.5103,3.5109,3.5127,3.5156,3.516,3.5135,3.5134,3.5182,3.5188,3.5193,3.525,3.5208,3.5211,3.5213,3.5339,3.5341,3.5343,0,0,0,0,0,0,3.5029,3.5038,3.5114,3.508,3.5089,3.5107,3.5127,3.5129,3.5142,3.5162,3.5164,3.5146,3.5182,3.5189,3.5229,3.5252,3.5213,3.5215,3.5337,3.534,3.5342,3.5363,0,0,0,0,0,0,3.5026,3.5037,3.5054,3.508,3.5091,3.5149,3.5128,3.5131,3.5148,3.5147,3.5172,3.5175,3.5181,3.5225,3.5232,3.5255,3.5218,3.5335,3.5338,3.5341,3.536,3.5366,3.537,0,0,0,0,0,3.5023,3.5057,3.5055,3.5064,3.5113,3.515,3.5156,3.5163,3.515,3.5168,3.5181,3.5174,3.5248,3.5229,3.5238,3.5262,3.5334,3.5337,3.5341,3.5358,3.5365,3.537,0,0,0,0,0,0,3.5032,3.506,3.5059,3.5102,3.5124,3.5149,3.5171,3.5169,3.5194,3.5192,3.5198,3.5204,3.5246,3.5258,3.5236,3.5309,3.5289,3.5295,3.5299,3.5306,3.5311,3.5307,3.5221,0,0,0,0,0,3.5039,3.5067,3.5091,3.5127,3.5138,3.5153,3.5169,3.5173,3.5196,3.5204,3.522,3.5242,3.527,3.5289,3.5315,3.5362,3.5369,3.5383,3.5388,3.5392,3.5397,3.5426,3.5433,3.5354,3.5354,3.5354,0,0,3.5054,3.5073,3.509,3.513,3.5147,3.5177,3.516,3.5192,3.5214,3.5209,3.5249,3.5262,3.5287,3.5332,3.5352,3.5343,3.5421,3.5397,3.54,3.5402,3.543,3.5437,3.5444,3.5356,3.5356,3.5355,0,0,3.5096,3.5113,3.5147,3.5165,3.5193,3.5203,3.5211,3.5237,3.5246,3.5286,3.5284,3.5311,3.5359,3.5378,3.5393,3.5448,3.5444,3.5456,3.5482,3.551,3.5516,3.5522,3.5543,3.555,3.5461,3.5461,3.5461,0,3.5111,3.5156,3.5164,3.5197,3.5215,3.5214,3.5249,3.5266,3.53,3.5313,3.5303,3.5365,3.5382,3.5432,3.5446,3.5458,3.5469,3.5453,3.5515,3.552,3.5526,3.5546,3.5554,3.5462,3.5462,3.5462,3.5462,0,3.5174,3.5206,3.523,3.5265,3.5286,3.5319,3.5333,3.5354,3.5356,3.5368,3.5411,3.5432,3.5464,3.5476,3.5478,3.5528,3.5522,3.5513,3.5494,3.5535,3.5554,3.5561,3.5464,3.5464,3.5463,3.5463,0,0,3.5222,3.5264,3.5272,3.529,3.5321,3.5346,3.538,3.5414,3.5432,3.5456,3.5487,3.5529,3.5522,3.554,3.5545,3.5569,3.5614,3.5558,3.5558,3.5569,3.5673,3.568,3.5689,3.5612,3.5613,3.5614,3.5671,0,3.5268,3.533,3.534,3.5395,3.5425,3.5426,3.5457,3.548,3.5492,3.552,3.5534,3.5565,3.5552,3.5564,3.5588,3.5603,3.5635,3.5599,3.5641,3.5642,3.5635,3.5699,3.5705,3.5758,3.5679,3.568,3.5681,0,3.5331,3.5359,3.5417,3.5448,3.5461,3.5488,3.5521,3.5548,3.5575,3.5583,3.5605,3.5608,3.5645,3.5625,3.5677,3.5653,3.5671,3.5681,3.5683,3.5688,3.5664,3.5706,3.5775,3.5783,3.5693,3.5692,3.5691,0,3.5362,3.5414,3.5457,3.5472,3.5508,3.5527,3.5543,3.5569,3.559,3.5619,3.5632,3.5665,3.5683,3.5708,3.572,3.5704,3.5773,3.5753,3.5781,3.5781,3.5795,3.5794,3.5869,3.5806,3.5806,3.5805,3.5805,0,3.5413,3.5449,3.5472,3.5498,3.5539,3.5551,3.5591,3.5607,3.5631,3.566,3.5663,3.5691,3.5704,3.5735,3.5744,3.5788,3.5796,3.5804,3.5806,3.5804,3.5803,3.5816,3.5813,3.5807,3.5807,3.5807,3.5806,0,3.5455,3.5471,3.5518,3.5549,3.5558,3.5588,3.5615,3.5641,3.5655,3.5693,3.5702,3.5724,3.576,3.5775,3.5818,3.5825,3.5876,3.5875,3.5867,3.5868,3.5896,3.5894,3.5982,3.5995,3.5922,3.5923,3.5923,0,3.5487,3.5515,3.5551,3.5572,3.5589,3.5622,3.5643,3.5657,3.5679,3.5715,3.5737,3.5774,3.5804,3.5862,3.5882,3.5916,3.5917,3.5946,3.5922,3.592,3.5919,3.5918,3.5922,3.595,3.5951,3.5951,3.5952,0,3.5543,3.5551,3.5582,3.5618,3.5644,3.5672,3.5699,3.5716,3.5734,3.576,3.5798,3.5822,3.5868,3.5905,3.5942,3.5959,3.5959,3.5959,3.5968,3.5967,3.5962,3.5967,3.588,3.5957,3.5956,3.5956,3.5956,3.5956,3.5582,3.5608,3.5638,3.5674,3.5697,3.5723,3.575,3.5769,3.5801,3.584,3.5847,3.5888,3.5917,3.5967,3.5985,3.6019,3.6011,3.6023,3.6026,3.603,3.6032,3.5956,3.6025,3.6025,3.6025,3.6025,3.6024,0,3.5639,3.566,3.5693,3.5732,3.5761,3.576,3.5792,3.5816,3.5852,3.588,3.5911,3.5956,3.5993,3.6017,3.6055,3.6077,3.6078,3.6086,3.6085,3.609,3.6036,3.6025,3.6085,3.6085,3.6085,3.6085,3.6085,3.6085,3.5673,3.5718,3.573,3.5787,3.5807,3.5849,3.5867,3.5892,3.5915,3.5966,3.5997,3.6013,3.604,3.608,3.6114,3.6121,3.6135,3.6144,3.615,3.6099,3.6093,3.6087,3.6077,3.6147,3.6147,3.6201,3.6201,3.6202]}]]